IRIDIUM 33 DEB, 33850

Orbit data source: Space-Track

IRIDIUM 33 DEB, 33850 is space debris in LEO originally from a launch on Sun, 14 Sep 1997 UTC launched from the Tyuratam Missile And Space Complex (TTMTR). The debris from Iridium 33, an American commercial communications satellite, has been tracked extensively since its accidental collision with the defunct Russian satellite Cosmos 2251 in 2009. This event, occurring at high speed in low Earth orbit (LEO), generated thousands of pieces of space debris, significantly increasing the risk of further collisions. The Iridium 33 debris cloud has impacted space traffic management and orbital debris mitigation strategies, making it a subject of ongoing study in space situational awareness.

Loading next visibility...
Identifier
33850, 1997-051T
Orbit
LEO
Country
Flag of USUS
Related business
Manufacturer
Unknown
Mission
Spacecraft
Bus & Motor
Unknown
Mass
Unknown
Launch date (UTC)
1997-09-14 (28 years ago)
Launch vehicle
Unknown
Launch site
Tyuratam Missile And Space Complex (TTMTR)
Object type
Payload
Rocket body
Debris
Shape & HBR
Unknown shape, 0.5 m
Radar Cross Section
Medium (>0.1 m² and <1 m²)

Expand to show TLE details & history
Last TLE update: 1 day ago

TLE from 1 day ago
0 IRIDIUM 33 DEB
1 33850U 97051T   25306.32910344  .00001788  00000-0  53985-3 0  9990
2 33850  86.3431  47.5459 0009308 306.3465 111.4779 14.41953867875702
Epoch: 2025-11-02T07:53Z
TLE epoch observation values (Epoch: 2025-11-02T07:53:54.537Z)
Latitude
57.83496°
Longitude
-106.97605°
Altitude
764.314 km
Speed
7.476 km/s
True Right ascension
03h 33m 23s
True Declination
57° 40' 48"
Sunlit
Object was in full shadow at epoch
Visualization orbit readout
Latitude
Unknown
Longitude
Unknown
Altitude
Unknown
Speed
Unknown
Apparent Right ascension
Unknown
Apparent Declination
Unknown
Sunlit
N/A
Visualization observer readout
Local Sidereal Time
14:18:40
Azimuth
Unknown
Elevation
Unknown
Doppler factor
Unknown
Orbital elements
Apogee altitude
755.639 km
Perigee altitude
742.371 km
Semi-major axis
7,127.142 km
Eccentricity
0.00093
Inclination
86.3431°
RAAN
47.5459°
Arg. of periapsis
306.3465°
True anomaly
111.57711°
Mean anomaly
111.4779°
Eccentric anomaly
111.52751°
Mean motion
3.6072 °/min
Orbital period
99.8 mins
BSTAR
0.00053985
Loading maneuver chart data...
Computing Atmospheric mass density...
Loading historical data...
Loading historical data...
Loading historical data...
Loading historical data...
Loading historical data...
Loading historical data...
Loading historical data...

Documentation

Showing up to 5 results
|